Powrót do katalogu

COSMOS 839 DEB

AktywnyUNKNOWN
NORAD 18428·DEBRIS·🇷🇺 Russia

Wystrzelony Jul 8, 1976 z Plesetsk Cosmodrome

Loading…

Następne Przeloty (najbliższe 24 godziny)

TLE

ŚwieżeSource: Space-Track

Epoka: Sep 13, 2026, 18:13 UTC

1 18428U 76067BM  26256.75912103  .00001612  00000-0  45528-2 0  9994
2 18428  65.7328  12.8143 0775991 252.6287 268.2280 12.37497341613802

Śledź COSMOS 839 DEB w czasie rzeczywistym z AllMySat

Download on the App Store